Location: Unspecified
(58.9933°N, 5.6375°E)
Time: 23:15:42
(UTC+02:00)

Resurs 1-4 Rocket - Visible Passes

Search period start: 30 July 2014 00:00
Search period end: 09 August 2014 00:00
Orbit: 800 x 815 km, 98.3° (Epoch: 29 July)

Date Brightness Start Highest point End Pass type
(mag) Time Alt. Az. Time Alt. Az. Time Alt. Az.
01 Aug 4.8 04:07:54 10° NE 04:10:08 13° E 04:12:22 10° ESE visible
04 Aug 4.6 04:33:33 10° NE 04:37:16 19° E 04:40:58 10° SE visible
05 Aug 4.8 04:09:59 10° NE 04:12:26 13° E 04:14:53 10° ESE visible
08 Aug 4.6 04:35:44 10° NE 04:39:33 20° E 04:43:21 10° SE visible
